1484035200.54,9802,4.13,72488.5,-13.87,-41.17,-39.35,0,*51
1484035201.79,9803,4.13,72490.8,-13.89,-41.35,-39.65,0,*5B
1484035203.03,9804,4.13,72490.5,-13.89,-41.35,-39.65,0,*5C
1484035204.28,9805,4.13,72490.0,-13.87,-41.29,-39.41,0,*58
1484035205.5,9806,4.13,72488.3,-13.89,-41.41,-39.85,0,*53
1484035206.79,9807,4.13,72486.3,-13.87,-41.35,-39.79,0,*5C
1484035208.03,9808,4.13,72486.3,-13.89,-41.41,-39.79,0,*5E
1484035209.29,9809,4.13,72490.5,-13.87,-41.49,-39.79,0,*59
1484035210.54,9810,4.13,72484.5,-13.89,-41.41,-39.97,0,*57
1484035211.81,9811,4.13,72484.5,-13.89,-41.35,-39.79,0,*55
1484035213.07,9812,4.13,72486.5,-13.89,-41.55,-39.97,0,*50
1484035214.31,9813,4.13,72490.0,-13.89,-41.55,-40.03,0,*52
1484035215.53,9814,4.13,72486.3,-13.89,-41.41,-40.03,0,*50
1484035216.82,9815,4.13,72486.8,-13.87,-41.35,-40.21,0,*5C
1484035218.04,9816,4.13,72482.0,-13.89,-41.61,-40.15,0,*57
1484035219.28,9817,4.13,72486.5,-13.89,-41.61,-40.21,0,*51
1484035220.5,9818,4.13,72484.5,-13.89,-41.41,-40.15,0,*5B
1484035221.74,9819,4.13,72482.0,-13.89,-41.35,-40.03,0,*5E
1484035222.99,9820,4.13,72484.0,-13.89,-41.61,-40.41,0,*53
1484035224.23,9821,4.13,72488.0,-13.89,-41.55,-40.35,0,*56
1484035225.49,9822,4.13,72484.3,-13.91,-41.35,-40.15,0,*58
1484035226.78,9823,4.13,72484.5,-13.91,-41.55,-40.21,0,*58
1484035228.0,9824,4.13,72490.0,-13.89,-41.41,-40.35,0,*56
1484035229.24,9825,4.13,72490.0,-13.89,-41.41,-40.41,0,*54
1484035230.49,9826,4.13,72482.5,-13.89,-41.23,-40.35,0,*50
1484035231.7,9827,4.13,72480.3,-13.89,-41.41,-40.35,0,*55
1484035232.94,9828,4.13,72482.0,-13.89,-41.29,-40.29,0,*59
1484035234.19,9829,4.13,72486.3,-13.89,-41.41,-40.41,0,*58
1484035235.46,9830,4.13,72484.0,-13.89,-41.55,-40.59,0,*5C
1484035236.7,9831,4.13,72484.8,-13.89,-41.73,-40.59,0,*59
1484035237.94,9832,4.13,72482.8,-13.91,-41.61,-40.73,0,*58
1484035239.19,9833,4.13,72484.3,-13.89,-41.81,-40.73,0,*5E
1484035240.47,9834,4.13,72480.8,-13.91,-41.81,-40.79,0,*5A
1484035241.77,9835,4.13,72482.3,-13.91,-41.81,-40.97,0,*5B
1484035243.07,9836,4.13,72486.3,-13.91,-41.81,-40.85,0,*5B
1484035244.3,9837,4.13,72488.0,-13.91,-41.61,-40.73,0,*5D
1484035245.57,9838,4.13,72484.3,-13.91,-41.61,-40.79,0,*58
1484035246.8,9839,4.13,72480.0,-13.93,-41.61,-40.79,0,*5B
1484035248.06,9840,4.13,72486.0,-13.91,-41.61,-40.79,0,*57
1484035249.3,9841,4.13,72488.0,-13.93,-41.55,-40.73,0,*59
1484035250.59,9842,4.13,72488.3,-13.91,-41.55,-40.79,0,*52
1484035251.86,9843,4.13,72490.0,-13.91,-41.61,-40.85,0,*57
1484035253.12,9844,4.13,72480.8,-13.91,-41.73,-40.85,0,*53
1484035254.39,9845,4.13,72482.5,-13.93,-41.55,-40.85,0,*54
1484035255.63,9846,4.13,72482.8,-13.93,-41.23,-40.73,0,*5F
1484035256.93,9847,4.13,72484.0,-13.91,-41.55,-40.97,0,*57
1484035258.2,9848,4.13,72484.0,-13.93,-41.55,-40.97,0,*5A
1484035259.44,9849,4.13,72484.3,-13.93,-41.41,-40.97,0,*5E
1484035260.69,9850,4.13,72486.0,-13.93,-41.61,-40.97,0,*54
1484035261.96,9851,4.13,72484.0,-13.93,-41.55,-40.97,0,*52
1484035263.18,9852,4.13,72482.3,-13.93,-41.61,-41.03,0,*5A
1484035264.4,9853,4.13,72480.3,-13.93,-41.41,-41.03,0,*59
1484035265.64,9854,4.13,72486.5,-13.93,-41.41,-40.97,0,*52
1484035266.91,9855,4.13,72482.3,-13.93,-41.55,-40.97,0,*56
1484035268.12,9856,4.13,72486.0,-13.93,-41.61,-41.17,0,*5B
1484035269.37,9857,4.13,72484.0,-13.93,-41.61,-41.23,0,*5D
1484035270.63,9858,4.13,72482.8,-13.91,-41.61,-41.23,0,*50
1484035271.9,9859,4.13,72484.5,-13.91,-41.55,-41.17,0,*51
1484035273.17,9860,4.13,72484.5,-13.91,-41.55,-41.03,0,*5E
1484035274.46,9861,4.13,72482.0,-13.91,-41.55,-41.35,0,*5A
1484035275.7,9862,4.13,72488.5,-13.93,-41.61,-41.35,0,*5C
1484035276.96,9863,4.13,72482.3,-13.93,-41.81,-41.55,0,*55
1484035278.2,9864,4.13,72480.3,-13.93,-41.93,-41.61,0,*56
1484035279.44,9865,4.13,72480.3,-13.93,-41.61,-41.55,0,*5D
1484035280.68,9866,4.13,72486.8,-13.93,-41.61,-41.23,0,*5F
1484035281.89,9867,4.13,72484.8,-13.93,-41.73,-41.41,0,*59
1484035283.13,9868,4.13,72482.5,-13.93,-41.81,-41.61,0,*59
1484035284.36,9869,4.13,72482.5,-13.93,-41.81,-41.61,0,*58
1484035285.6,9870,4.13,72480.5,-13.99,-41.73,-41.55,0,*50
1484035286.89,9871,4.13,72482.0,-13.95,-41.81,-41.81,0,*59
1484035288.16,9872,4.13,72482.0,-13.95,-41.87,-41.67,0,*54
1484035289.42,9873,4.13,72482.3,-13.95,-41.67,-41.49,0,*57
1484035290.69,9874,4.13,72486.0,-13.95,-41.67,-41.61,0,*5A
1484035291.98,9875,4.13,72480.3,-13.95,-41.81,-41.67,0,*55
1484035293.2,9876,4.13,72482.5,-13.99,-41.87,-41.87,0,*52
1484035294.5,9877,4.13,72482.3,-13.95,-41.67,-41.67,0,*5F
1484035295.71,9878,4.13,72480.5,-13.99,-41.73,-41.73,0,*5C
1484035297.0,9879,4.13,72482.3,-13.95,-41.67,-41.81,0,*59
1484035298.28,9880,4.13,72480.5,-13.95,-41.81,-41.81,0,*57
1484035299.5,9881,4.13,72484.0,-13.99,-41.73,-41.87,0,*51
1484035300.74,9882,4.13,72482.5,-13.99,-41.67,-41.73,0,*5C
1484035302.0,9883,4.13,72478.0,-13.99,-41.93,-41.93,0,*58
1484035303.25,9884,4.13,72486.5,-13.99,-42.05,-41.93,0,*53
1484035304.48,9885,4.13,72486.8,-13.99,-41.73,-41.93,0,*50
1484035305.75,9886,4.13,72484.8,-13.99,-41.67,-41.93,0,*56
1484035306.99,9887,4.13,72488.8,-13.99,-41.67,-41.73,0,*59
1484035308.25,9888,4.13,72488.3,-13.95,-41.81,-41.99,0,*56
1484035309.49,9889,4.13,72482.5,-13.99,-41.87,-42.05,0,*5B
1484035310.75,9890,4.13,72480.8,-13.99,-41.93,-42.05,0,*56
1484035311.98,9891,4.13,72480.3,-13.99,-41.87,-41.93,0,*5E
1484035313.23,9892,4.13,72486.8,-13.99,-41.67,-41.87,0,*56
1484035314.47,9893,4.13,72488.5,-13.99,-41.87,-42.05,0,*50
1484035315.7,9894,4.13,72484.8,-13.95,-41.99,-42.13,0,*53
1484035316.93,9895,4.13,72486.8,-13.99,-42.05,-42.13,0,*58
1484035318.17,9896,4.13,72482.0,-13.99,-42.19,-42.13,0,*56
1484035319.43,9897,4.13,72486.0,-13.99,-41.93,-42.05,0,*51
1484035320.7,9898,4.13,72482.0,-13.99,-41.93,-42.05,0,*5E
1484035321.93,9899,4.13,72486.5,-13.99,-41.93,-42.13,0,*58
1484035323.17,9900,4.13,72484.3,-13.99,-41.93,-42.13,0,*59
1484035324.46,9901,4.13,72486.8,-14.01,-41.93,-42.31,0,*5E
1484035325.72,9902,4.13,72486.8,-14.01,-42.05,-42.13,0,*51
1484035326.95,9903,4.13,72480.0,-14.01,-41.87,-42.13,0,*59
1484035328.16,9904,4.13,72484.0,-14.03,-42.13,-42.37,0,*54
1484035329.45,9905,4.13,72478.0,-14.01,-42.05,-42.19,0,*5C
1484035330.71,9906,4.13,72484.5,-14.01,-41.93,-42.13,0,*59
1484035331.94,9907,4.13,72484.8,-14.03,-41.99,-42.19,0,*5A
1484035333.2,9908,4.13,72484.5,-14.01,-42.05,-42.13,0,*5B
1484035334.4,9909,4.13,72488.0,-14.03,-41.99,-42.25,0,*5B
1484035335.66,9910,4.13,72486.0,-14.03,-41.93,-42.19,0,*56
1484035336.92,9911,4.13,72490.3,-14.03,-41.93,-42.19,0,*57
1484035338.16,9912,4.13,72486.5,-14.03,-41.81,-41.99,0,*5C
1484035339.42,9913,4.13,72488.3,-14.03,-41.93,-42.19,0,*55
1484035340.68,9914,4.13,72490.3,-14.03,-41.81,-42.19,0,*51
1484035341.91,9915,4.13,72486.0,-14.03,-41.93,-42.13,0,*59
1484035343.11,9916,4.13,72484.3,-14.03,-41.99,-42.25,0,*55
1484035344.37,9917,4.13,72486.0,-14.03,-41.93,-42.19,0,*51
1484035345.61,9918,4.13,72492.3,-14.01,-41.73,-42.13,0,*58
1484035346.87,9919,4.13,72486.8,-14.03,-41.81,-42.19,0,*5C
1484035348.07,9920,4.13,72488.5,-14.03,-41.99,-42.25,0,*50
1484035349.31,9921,4.13,72490.0,-14.01,-41.87,-42.13,0,*59
1484035350.55,9922,4.13,72482.0,-14.01,-41.87,-42.13,0,*5A
1484035351.81,9923,4.13,72488.3,-14.03,-41.93,-42.19,0,*56
1484035353.01,9924,4.13,72482.0,-14.03,-41.99,-42.25,0,*54
1484035354.27,9925,4.13,72486.3,-14.03,-41.81,-42.19,0,*53
1484035355.48,9926,4.13,72484.8,-14.03,-41.73,-41.99,0,*56
1484035356.69,9927,4.13,72486.0,-14.03,-41.61,-41.99,0,*54
1484035357.89,9928,4.13,72482.5,-14.03,-41.73,-42.13,0,*59
1484035359.12,9929,4.13,72480.8,-14.03,-41.55,-42.13,0,*5C
1484035360.32,9930,4.13,72482.5,-14.03,-41.73,-41.99,0,*51
1484035361.53,9931,4.13,72482.8,-14.03,-41.73,-41.99,0,*50
1484035362.76,9932,4.13,72484.3,-14.03,-41.81,-42.13,0,*5F
1484035364.05,9933,4.13,72486.3,-14.05,-41.93,-42.19,0,*51
1484035365.31,9934,4.13,72486.5,-14.05,-41.73,-42.19,0,*58
1484035366.55,9935,4.13,72490.5,-14.03,-41.93,-42.25,0,*5E
1484035367.75,9936,4.13,72484.3,-14.03,-41.73,-42.13,0,*56
1484035369.02,9937,4.13,72480.0,-14.01,-41.87,-42.19,0,*54
1484035370.25,9938,4.13,72482.5,-14.01,-41.73,-42.13,0,*5A
1484035371.45,9939,4.13,72484.3,-14.03,-41.73,-42.13,0,*59
1484035372.68,9940,4.13,72476.8,-14.03,-41.81,-42.25,0,*5F
1484035373.94,9941,4.13,72486.8,-14.03,-41.81,-42.19,0,*51
1484035375.18,9942,4.13,72480.3,-14.03,-41.81,-42.25,0,*5D
1484035376.41,9943,4.13,72486.3,-14.03,-41.93,-42.25,0,*5F
1484035377.67,9944,4.13,72486.5,-14.01,-41.67,-42.25,0,*51
1484035378.91,9945,4.13,72486.8,-14.03,-41.73,-42.19,0,*58
1484035380.17,9946,4.13,72490.8,-14.03,-41.81,-42.19,0,*56
1484035381.4,9947,4.13,72484.0,-14.03,-41.73,-42.19,0,*5A
1484035382.69,9948,4.13,72486.5,-14.01,-41.67,-42.05,0,*5F
1484035383.92,9949,4.13,72488.0,-14.03,-41.67,-42.13,0,*5B
1484035385.12,9950,4.13,72486.3,-14.03,-41.61,-42.13,0,*55
1484035386.36,9951,4.13,72480.0,-14.03,-41.87,-42.19,0,*56
1484035387.6,9952,4.13,72482.8,-14.01,-41.87,-42.13,0,*5D
1484035388.83,9953,4.13,72482.3,-14.03,-41.73,-42.19,0,*5F
1484035390.06,9954,4.13,72482.8,-14.03,-41.73,-42.19,0,*58
1484035391.32,9955,4.13,72484.8,-14.03,-41.81,-42.19,0,*54
1484035392.56,9956,4.13,72486.0,-14.03,-41.61,-42.19,0,*59
1484035393.82,9957,4.13,72490.8,-14.01,-41.55,-42.25,0,*52
1484035395.08,9958,4.13,72480.3,-14.01,-41.55,-42.13,0,*58
1484035396.32,9959,4.13,72486.5,-14.03,-41.61,-42.19,0,*56
1484035397.58,9960,4.13,72484.0,-14.01,-41.73,-42.31,0,*57
1484035398.84,9961,4.13,72484.0,-14.01,-41.67,-42.13,0,*53
1484035400.07,9962,4.13,72484.5,-14.01,-41.49,-42.13,0,*5C
1484035401.33,9963,4.13,72486.5,-14.01,-41.49,-41.93,0,*56
1484035402.62,9964,4.13,72484.8,-14.01,-41.35,-42.05,0,*56
1484035403.9,9965,4.13,72480.5,-14.01,-41.35,-41.93,0,*5B
1484035405.13,9966,4.13,72486.3,-14.03,-41.55,-42.13,0,*57
1484035406.41,9967,4.13,72486.0,-14.01,-41.55,-42.05,0,*53
1484035407.67,9968,4.13,72480.3,-13.99,-41.55,-41.93,0,*56
1484035408.93,9969,4.13,72492.0,-13.99,-41.55,-42.05,0,*5B
1484035410.19,9970,4.13,72490.5,-13.99,-41.55,-42.05,0,*53
1484035411.42,9971,4.13,72486.5,-13.99,-41.49,-41.93,0,*53
1484035412.65,9972,4.13,72488.5,-13.99,-41.49,-41.93,0,*50
1484035413.91,9973,4.13,72486.8,-13.99,-41.35,-41.93,0,*5A
1484035415.15,9974,4.13,72484.5,-13.99,-41.49,-41.93,0,*56
1484035416.4,9975,4.13,72486.8,-13.95,-41.29,-42.05,0,*51
1484035417.63,9976,4.13,72486.8,-13.95,-41.29,-41.99,0,*54
1484035418.87,9977,4.13,72486.3,-13.95,-41.29,-41.87,0,*5A
1484035420.1,9978,4.13,72486.3,-13.95,-41.29,-41.87,0,*55
1484035421.33,9979,4.13,72492.5,-13.95,-41.29,-41.87,0,*54
1484035422.6,9980,4.13,72484.3,-13.99,-41.35,-42.05,0,*5A
1484035423.83,9981,4.13,72486.0,-13.95,-41.29,-41.87,0,*53
1484035425.1,9982,4.13,72484.5,-13.95,-41.23,-41.87,0,*5A
1484035426.36,9983,4.13,72484.0,-13.91,-41.17,-41.81,0,*5E
1484035427.58,9984,4.13,72488.3,-13.93,-41.17,-41.93,0,*58
1484035428.8,9985,4.13,72488.0,-13.93,-41.41,-41.99,0,*50
1484035430.03,9986,4.13,72480.5,-13.93,-41.23,-41.99,0,*57
1484035431.32,9987,4.13,72484.3,-13.91,-41.23,-41.81,0,*5D
1484035432.58,9988,4.13,72486.5,-13.93,-41.23,-41.81,0,*50
1484035433.84,9989,4.13,72484.0,-13.93,-41.23,-41.93,0,*52
1484035435.08,9990,4.13,72486.5,-13.93,-41.35,-41.99,0,*57
1484035436.37,9991,4.13,72486.8,-13.91,-41.23,-41.93,0,*59
1484035437.65,9992,4.13,72484.8,-13.91,-41.23,-41.93,0,*5A
1484035438.94,9993,4.13,72486.5,-13.91,-41.35,-41.81,0,*5F
1484035440.16,9994,4.13,72482.5,-13.89,-41.17,-41.87,0,*57
1484035441.4,9995,4.13,72486.5,-13.89,-41.23,-41.99,0,*5E
1484035442.64,9996,4.13,72488.5,-13.89,-41.23,-41.99,0,*5D
1484035443.89,9997,4.13,72484.3,-13.89,-41.23,-41.99,0,*5C
1484035445.12,9998,4.13,72486.8,-13.87,-41.11,-41.73,0,*58
1484035446.37,9999,4.13,72484.8,-13.89,-41.03,-41.81,0,*59
1484035447.61,10000,4.13,72490.0,-13.87,-41.11,-41.87,0,*63
1484035448.85,10001,4.13,72488.5,-13.87,-41.11,-41.73,0,*69
1484035450.07,10002,4.13,72482.5,-13.89,-41.11,-41.87,0,*6F
1484035451.31,10003,4.13,72484.0,-13.87,-41.29,-41.99,0,*64
1484035452.55,10004,4.13,72490.3,-13.87,-41.17,-41.99,0,*6E
1484035453.76,10005,4.13,72484.8,-13.85,-41.29,-41.99,0,*60
1484035455.0,10006,4.13,72488.0,-13.85,-41.11,-41.93,0,*62
1484035456.21,10007,4.13,72484.8,-13.85,-41.11,-41.87,0,*66
1484035457.43,10008,4.13,72488.8,-13.85,-41.11,-41.87,0,*69
1484035458.71,10009,4.13,72486.3,-13.83,-40.91,-41.67,0,*69
1484035459.99,10010,4.13,72484.8,-13.83,-41.03,-41.67,0,*6B
1484035461.27,10011,4.13,72484.5,-13.83,-41.03,-41.67,0,*6A
1484035462.54,10012,4.13,72486.8,-13.83,-40.91,-41.67,0,*63
1484035463.82,10013,4.13,72488.8,-13.83,-41.03,-41.67,0,*68
1484035465.09,10014,4.13,72486.0,-13.83,-40.91,-41.81,0,*6D
1484035466.33,10015,4.13,72486.0,-13.81,-41.11,-41.93,0,*64
1484035467.59,10016,4.13,72484.5,-13.81,-41.23,-41.93,0,*66
1484035468.81,10017,4.13,72484.3,-13.81,-41.11,-41.87,0,*63
1484035470.08,10018,4.13,72482.5,-13.81,-41.23,-42.05,0,*64
1484035471.33,10019,4.13,72488.0,-13.79,-41.03,-41.87,0,*69
1484035472.55,10020,4.13,72490.3,-13.81,-41.11,-41.87,0,*67
1484035473.81,10021,4.13,72480.5,-13.81,-41.23,-41.93,0,*62
1484035475.08,10022,4.13,72484.8,-13.79,-41.03,-41.81,0,*67
1484035476.32,10023,4.13,72486.8,-13.79,-41.17,-41.87,0,*65
1484035477.59,10024,4.13,72484.5,-13.79,-41.03,-41.81,0,*61
1484035478.86,10025,4.13,72484.0,-13.79,-41.03,-41.81,0,*60
1484035480.1,10026,4.13,72482.8,-13.79,-41.17,-41.87,0,*60
1484035481.37,10027,4.13,72486.0,-13.79,-41.03,-41.81,0,*62
1484035482.59,10028,4.13,72486.8,-13.77,-41.03,-41.99,0,*6A
1484035483.81,10029,4.13,72486.0,-13.77,-41.03,-41.87,0,*64
1484035485.05,10030,4.13,72484.5,-13.77,-41.03,-41.81,0,*6A
1484035486.27,10031,4.13,72492.0,-13.77,-41.03,-41.87,0,*6D
1484035487.54,10032,4.13,72484.3,-13.75,-40.91,-41.81,0,*60
1484035488.8,10033,4.13,72484.0,-13.77,-40.97,-41.81,0,*65
1484035490.08,10034,4.13,72482.8,-13.75,-40.91,-41.67,0,*6E
1484035491.35,10035,4.13,72482.0,-13.75,-40.91,-41.67,0,*6F
1484035492.62,10036,4.13,72484.0,-13.75,-40.91,-41.67,0,*6C
1484035493.89,10037,4.13,72484.5,-13.75,-40.91,-41.81,0,*65
1484035495.18,10038,4.13,72484.8,-13.75,-40.97,-41.81,0,*6C
1484035496.44,10039,4.13,72484.5,-13.75,-40.97,-41.73,0,*60
1484035497.72,10040,4.13,72486.3,-13.75,-40.97,-41.93,0,*60
1484035498.94,10041,4.13,72488.0,-13.69,-40.91,-41.87,0,*6F
1484035500.19,10042,4.13,72484.5,-13.69,-40.91,-41.67,0,*62
1484035501.47,10043,4.13,72486.0,-13.71,-40.79,-41.67,0,*6C
1484035502.71,10044,4.13,72486.8,-13.69,-40.85,-41.73,0,*64
1484035503.98,10045,4.13,72486.5,-13.69,-40.85,-41.67,0,*60
1484035505.22,10046,4.13,72490.0,-13.71,-40.91,-41.73,0,*6A
1484035506.46,10047,4.13,72480.5,-13.69,-40.85,-41.73,0,*67
1484035507.72,10048,4.13,72484.8,-13.69,-40.85,-41.67,0,*6D
1484035509.02,10049,4.13,72488.8,-13.67,-40.85,-41.67,0,*62
1484035510.29,10050,4.13,72490.5,-13.65,-40.97,-41.67,0,*6B
1484035511.53,10051,4.13,72490.3,-13.67,-41.03,-41.87,0,*6A
1484035512.83,10052,4.13,72484.3,-13.67,-40.85,-41.67,0,*68
1484035514.07,10053,4.13,72484.0,-13.67,-41.03,-41.87,0,*68
1484035515.31,10054,4.13,72484.8,-13.65,-40.85,-41.61,0,*6A
1484035516.58,10055,4.13,72482.3,-13.67,-40.91,-41.67,0,*6A
1484035517.85,10056,4.13,72482.8,-13.65,-40.85,-41.55,0,*6F
1484035519.09,10057,4.13,72486.8,-13.65,-40.85,-41.61,0,*69
1484035520.35,10058,4.13,72486.8,-13.65,-40.85,-41.81,0,*68
1484035521.58,10059,4.13,72480.8,-13.65,-40.85,-41.61,0,*67
1484035522.85,10060,4.13,72480.8,-13.65,-40.97,-41.81,0,*60
1484035524.08,10061,4.13,72488.0,-13.63,-40.85,-41.61,0,*6A
1484035525.35,10062,4.13,72482.8,-13.63,-40.79,-41.55,0,*6D
1484035526.57,10063,4.13,72486.8,-13.63,-41.17,-41.87,0,*6A
1484035527.84,10064,4.13,72480.8,-13.63,-40.85,-41.67,0,*69
1484035529.1,10065,4.13,72482.0,-13.61,-40.97,-41.73,0,*6C
1484035530.34,10066,4.13,72480.3,-13.63,-40.85,-41.61,0,*6D
1484035531.61,10067,4.13,72482.8,-13.63,-40.85,-41.67,0,*6A
1484035532.86,10068,4.13,72482.3,-13.63,-41.03,-41.67,0,*6A
1484035534.11,10069,4.13,72482.0,-13.61,-40.91,-41.61,0,*65
1484035535.4,10070,4.13,72480.3,-13.61,-40.79,-41.55,0,*6C
1484035536.65,10071,4.13,72480.5,-13.61,-40.79,-41.61,0,*6A
1484035537.93,10072,4.13,72486.3,-13.61,-40.91,-41.55,0,*68
1484035539.19,10073,4.13,72482.8,-13.61,-40.79,-41.61,0,*68
1484035540.43,10074,4.13,72482.3,-13.61,-40.91,-41.61,0,*69
1484035541.67,10075,4.13,72484.8,-13.59,-40.73,-41.35,0,*6E
1484035542.88,10076,4.13,72482.0,-13.59,-40.73,-41.49,0,*66
1484035544.09,10077,4.13,72480.8,-13.59,-40.73,-41.49,0,*67
1484035545.33,10078,4.13,72486.3,-13.57,-40.65,-41.29,0,*67
1484035546.57,10079,4.19,72488.3,-13.57,-40.65,-41.41,0,*68
1484035547.84,10080,4.13,72484.3,-13.57,-40.85,-41.49,0,*68
1484035549.09,10081,4.13,72488.3,-13.57,-40.91,-41.73,0,*65
1484035550.34,10082,4.13,72480.8,-13.57,-40.73,-41.49,0,*63
1484035551.58,10083,4.13,72480.3,-13.57,-40.73,-41.49,0,*62
1484035552.86,10084,4.13,72480.8,-13.57,-40.91,-41.55,0,*64
1484035554.09,10085,4.13,72486.5,-13.55,-40.73,-41.55,0,*6B
1484035555.35,10086,4.13,72482.8,-13.53,-40.79,-41.41,0,*61
1484035556.56,10087,4.13,72492.5,-13.55,-40.73,-41.49,0,*64
1484035557.82,10088,4.13,72484.3,-13.53,-40.85,-41.61,0,*6E
1484035559.09,10089,4.13,72484.8,-13.53,-40.85,-41.73,0,*6C
1484035560.35,10090,4.13,72484.3,-13.53,-40.79,-41.49,0,*6E
1484035561.59,10091,4.13,72484.3,-13.53,-41.17,-41.87,0,*64
1484035562.85,10092,4.13,72480.3,-13.55,-41.23,-41.93,0,*63
1484035564.09,10093,4.13,72484.0,-13.53,-41.03,-41.87,0,*63
1484035565.34,10094,4.19,72486.3,-13.55,-41.23,-41.87,0,*60
1484035566.58,10095,4.13,72484.8,-13.53,-41.03,-41.87,0,*65
1484035567.82,10096,4.13,72482.8,-13.53,-41.17,-41.99,0,*6C
1484035569.06,10097,4.13,72480.8,-13.53,-41.17,-41.99,0,*6D
1484035570.31,10098,4.13,72484.8,-13.53,-41.03,-41.87,0,*68
1484035571.57,10099,4.13,72490.5,-13.53,-41.03,-41.81,0,*6F
1484035572.82,10100,4.13,72486.5,-13.53,-41.03,-41.87,0,*68
1484035574.06,10101,4.13,72486.0,-13.53,-41.03,-41.99,0,*66
1484035575.31,10102,4.19,72488.3,-13.49,-41.03,-41.87,0,*61
1484035576.53,10103,4.13,72482.3,-13.47,-40.91,-41.73,0,*6F
1484035577.8,10104,4.13,72482.3,-13.49,-40.97,-41.87,0,*6B
1484035579.06,10105,4.13,72482.3,-13.49,-40.85,-41.87,0,*69
1484035580.32,10106,4.19,72484.8,-13.49,-41.17,-42.05,0,*69
1484035581.58,10107,4.13,72484.5,-13.49,-41.17,-42.05,0,*68
1484035582.82,10108,4.19,72486.5,-13.49,-41.49,-42.25,0,*6E
1484035584.06,10109,4.19,72490.5,-13.47,-40.97,-41.73,0,*63
1484035585.31,10110,4.13,72488.8,-13.49,-41.03,-41.99,0,*6D
1484035586.6,10111,4.13,72488.0,-13.49,-41.23,-42.05,0,*68
1484035587.89,10112,4.13,72484.5,-13.49,-41.23,-42.05,0,*6B
1484035589.18,10113,4.13,72484.3,-13.49,-41.23,-42.05,0,*6A
1484035590.43,10114,4.13,72484.8,-13.49,-41.03,-41.87,0,*66
1484035591.66,10115,4.13,72484.0,-13.47,-41.11,-41.93,0,*6F
1484035592.93,10116,4.13,72482.8,-13.49,-41.03,-42.19,0,*60
1484035594.17,10117,4.13,72482.3,-13.47,-40.97,-41.99,0,*68
1484035595.43,10118,4.13,72486.5,-13.47,-40.97,-41.93,0,*6D
1484035596.67,10119,4.13,72482.5,-13.47,-40.97,-41.99,0,*66
1484035597.91,10120,4.13,72486.5,-13.47,-40.97,-41.99,0,*6C
1484035599.12,10121,4.13,72486.0,-13.47,-41.17,-42.13,0,*65
1484035600.33,10122,4.13,72486.0,-13.47,-41.11,-42.13,0,*60
1484035601.59,10123,4.13,72486.3,-13.47,-40.97,-41.93,0,*65
1484035602.84,10124,4.13,72484.5,-13.45,-40.91,-41.73,0,*68
1484035604.12,10125,4.13,72484.5,-13.45,-40.79,-41.93,0,*61
1484035605.38,10126,4.19,72486.0,-13.45,-40.97,-41.99,0,*68
1484035606.64,10127,4.19,72488.5,-13.45,-41.11,-42.19,0,*6D
1484035607.91,10128,4.19,72484.3,-13.45,-41.11,-42.19,0,*62
1484035609.17,10129,4.13,72486.3,-13.45,-40.79,-41.99,0,*67
1484035610.45,10130,4.19,72490.8,-13.45,-40.79,-41.93,0,*65
1484035611.7,10131,4.13,72482.8,-13.43,-40.79,-41.93,0,*62
1484035612.95,10132,4.19,72486.5,-13.43,-40.79,-41.93,0,*61
1484035614.21,10133,4.19,72484.3,-13.45,-40.79,-41.99,0,*6C
1484035615.43,10134,4.19,72484.8,-13.43,-40.91,-42.13,0,*6A
1484035616.66,10135,4.13,72480.5,-13.43,-40.73,-41.93,0,*6C
1484035617.91,10136,4.19,72488.0,-13.43,-40.79,-41.93,0,*65
1484035619.17,10137,4.19,72486.5,-13.41,-40.73,-41.93,0,*6C
1484035620.38,10138,4.19,72486.0,-13.43,-40.91,-42.13,0,*66
1484035621.65,10139,4.13,72478.5,-13.43,-40.97,-42.19,0,*6B
1484035622.86,10140,4.13,72482.3,-13.43,-41.11,-42.37,0,*66
1484035624.13,10141,4.19,72486.0,-13.41,-41.03,-42.31,0,*60
1484035625.34,10142,4.19,72486.0,-13.43,-41.17,-42.37,0,*62
1484035626.56,10143,4.13,72486.3,-13.43,-40.91,-42.37,0,*6C
1484035627.82,10144,4.13,72484.0,-13.43,-40.79,-42.31,0,*6B
1484035629.08,10145,4.19,72484.3,-13.41,-40.85,-42.13,0,*6B
1484035630.32,10146,4.19,72490.3,-13.43,-40.59,-42.13,0,*6B
1484035631.58,10147,4.13,72480.3,-13.41,-40.85,-42.13,0,*69
1484035632.87,10148,4.19,72488.8,-13.37,-40.59,-42.05,0,*61
1484035634.11,10149,4.13,72486.3,-13.41,-40.73,-42.25,0,*6B
1484035635.35,10150,4.19,72488.0,-13.41,-40.73,-42.25,0,*63
1484035636.63,10151,4.19,72484.3,-13.37,-40.59,-42.05,0,*69
1484035637.87,10152,4.19,72486.8,-13.37,-40.47,-41.99,0,*63
1484035639.11,10153,4.19,72490.8,-13.37,-40.47,-41.99,0,*62
1484035640.39,10154,4.19,72494.0,-13.37,-40.59,-42.05,0,*6C
1484035641.65,10155,4.19,72486.0,-13.41,-40.53,-42.05,0,*66
1484035642.91,10156,4.19,72486.0,-13.37,-40.47,-41.81,0,*6E
1484035644.18,10157,4.19,72484.0,-13.37,-40.41,-41.87,0,*6F
1484035645.47,10158,4.13,72482.0,-13.37,-40.41,-42.05,0,*69
1484035646.76,10159,4.19,72484.5,-13.37,-40.59,-42.19,0,*6C
1484035648.05,10160,4.13,72482.8,-13.37,-40.59,-42.05,0,*6B
1484035649.33,10161,4.19,72484.0,-13.37,-40.59,-42.05,0,*6A
1484035650.58,10162,4.19,72484.5,-13.35,-40.41,-41.99,0,*64
1484035651.84,10163,4.19,72484.8,-13.35,-40.41,-41.93,0,*6F
1484035653.08,10164,4.19,72486.3,-13.35,-40.41,-42.13,0,*63
1484035654.32,10165,4.19,72484.8,-13.35,-40.35,-41.93,0,*6A
1484035655.55,10166,4.19,72486.3,-13.35,-40.35,-41.81,0,*6A
1484035656.81,10167,4.19,72484.0,-13.35,-40.21,-41.81,0,*6E
1484035658.05,10168,4.19,72484.8,-13.35,-40.35,-41.81,0,*64
1484035659.31,10169,4.19,72486.0,-13.33,-40.35,-41.81,0,*63
1484035660.54,10170,4.19,72484.5,-13.35,-40.35,-41.93,0,*6E
1484035661.81,10171,4.13,72480.3,-13.33,-40.35,-41.81,0,*6A
1484035663.08,10172,4.13,72480.0,-13.33,-40.15,-41.81,0,*6B
1484035664.32,10173,4.13,72480.0,-13.33,-40.35,-41.99,0,*61
1484035665.56,10174,4.19,72482.3,-13.29,-40.47,-42.13,0,*69
1484035666.85,10175,4.19,72482.3,-13.33,-40.41,-42.05,0,*62
1484035668.09,10176,4.19,72486.3,-13.29,-40.35,-42.13,0,*6E
1484035669.35,10177,4.19,72486.3,-13.29,-40.35,-42.05,0,*68
1484035670.61,10178,4.19,72486.8,-13.29,-40.35,-42.05,0,*67
1484035671.87,10179,4.19,72488.3,-13.29,-40.35,-41.93,0,*6A
1484035673.1,10180,4.19,72486.0,-13.29,-40.47,-42.13,0,*62
1484035674.33,10181,4.19,72486.8,-13.29,-40.53,-42.25,0,*63
1484035675.57,10182,4.19,72494.5,-13.29,-40.47,-42.25,0,*65
1484035676.79,10183,4.19,72480.0,-13.27,-40.73,-42.51,0,*6E
1484035678.06,10184,4.19,72482.8,-13.33,-40.53,-42.31,0,*68
1484035679.29,10185,4.19,72480.3,-13.29,-40.35,-42.25,0,*67
1484035680.53,10186,4.19,72484.0,-13.29,-40.47,-42.25,0,*61
1484035681.75,10187,4.19,72484.5,-13.27,-40.47,-42.25,0,*6E
1484035682.97,10188,4.19,72486.3,-13.27,-40.47,-42.13,0,*64
1484035684.19,10189,4.19,72482.8,-13.27,-40.35,-42.25,0,*65
1484035685.43,10190,4.19,72484.0,-13.27,-40.35,-42.05,0,*6F
1484035686.67,10191,4.19,72484.5,-13.27,-40.35,-42.05,0,*6E
1484035687.95,10192,4.19,72484.3,-13.25,-40.29,-42.05,0,*62
1484035689.19,10193,4.19,72482.3,-13.27,-40.29,-42.13,0,*66
1484035690.43,10194,4.19,72478.5,-13.25,-40.47,-42.13,0,*6B
1484035691.69,10195,4.19,72478.0,-13.25,-40.35,-42.05,0,*68
1484035692.97,10196,4.19,72482.0,-13.25,-40.29,-42.05,0,*66
1484035694.24,10197,4.19,72484.5,-13.27,-40.09,-41.93,0,*6B
1484035695.5,10198,4.19,72484.0,-13.25,-40.29,-42.25,0,*6A
1484035696.77,10199,4.19,72482.5,-13.25,-40.29,-42.25,0,*6B
1484035698.02,10200,4.19,72482.0,-13.25,-40.29,-42.13,0,*6D
1484035699.27,10201,4.19,72484.5,-13.25,-40.15,-42.13,0,*63
1484035700.53,10202,4.19,72490.3,-13.25,-40.29,-42.13,0,*6F
1484035701.77,10203,4.19,72484.3,-13.23,-40.21,-41.99,0,*61
1484035703.01,10204,4.19,72480.8,-13.23,-40.09,-41.99,0,*6C
1484035704.27,10205,4.19,72478.5,-13.23,-40.21,-42.05,0,*61